Flag for Germany Weather past 2 weeks in Verden (Aller), Lower Saxony, Germany

Now
43 °F

Scattered showers. Scattered clouds.


Feels Like: 36 °F
Forecast: 37 / 44 °F
Wind: 14 mph from West

Location: Bremen Airport

Current Time: Mar 1, 2015 at 6:03:30 PM

Latest Report: Mar 1, 2015 at 5:20 PM


Visibility: N/A

Pressure: 29.50 "Hg

Humidity: 81%

Dew point: 37 °F

Location of Verden (Aller)Location

Historic Weather in Verden (Aller) — Graph

°F

Verden (Aller) temperature yesterday

Maximum temperature yesterday: 45 °F (at 2:20 PM)
Minimum temperature yesterday: 28 °F (at 4:50 AM)
Average temperature yesterday: 37 °F

Past Weeks' High & Low Weather Summary

 TemperatureHumidityPressure
High50 °F (Feb 14, 4:20 PM)100% (Feb 15, 4:50 AM)30.72 "Hg (Feb 15, 4:50 AM)
Low27 °F (Feb 17, 5:50 AM)57% (Feb 18, 4:20 PM)29.27 "Hg (Feb 21, 6:50 AM)
Average38 °F87%29.93 "Hg
* Reported Feb 14 4:20 PM — Mar 1 4:20 PM, Verden (Aller), Weather by CustomWeather, © 2015

Note: Actual official high and low records may vary slightly from our data, if they occured in-between our weather recording intervals... More about our weather records

Advertising

Verden (Aller) weather history for previous 24 hours

 ConditionsComfort  
Time TempWeatherWind HumidityBarometerVisibility
4:20 PM
Sun, Mar 1
45 °FLight rain. Broken clouds.18 mph81%29.53 "HgN/A
3:50 PM45 °FScattered showers. Scattered clouds.18 mph87%29.50 "HgN/A
3:20 PM45 °FSprinkles. Partly sunny.15 mph81%29.50 "HgN/A
2:50 PM45 °FSprinkles. Partly sunny.20 mph81%29.50 "HgN/A
2:20 PM50 °FScattered showers. Scattered clouds.20 mph67%29.47 "HgN/A
1:50 PM50 °FScattered showers. Scattered clouds.17 mph67%29.47 "HgN/A
1:20 PM48 °FSprinkles. Scattered clouds.21 mph71%29.47 "HgN/A
12:50 PM50 °FScattered clouds.20 mph71%29.47 "HgN/A
12:20 PM46 °FLight rain. Scattered clouds.18 mph87%29.47 "HgN/A
11:50 AM50 °FPartly sunny.16 mph82%29.47 "HgN/A
11:20 AM48 °FPartly sunny.18 mph87%29.47 "HgN/A
10:50 AM45 °FDrizzle. Partly sunny.12 mph93%29.47 "HgN/A
10:20 AM45 °FDrizzle. Partly sunny.14 mph93%29.47 "HgN/A
9:50 AM43 °FDrizzle. Partly sunny.15 mph93%29.47 "HgN/A
9:20 AM43 °FPartly sunny.14 mph93%29.47 "HgN/A
8:50 AM41 °FDrizzle. Partly sunny.14 mph93%29.45 "HgN/A
8:20 AM41 °FDrizzle. Partly sunny.14 mph93%29.47 "HgN/A
7:50 AM39 °FDrizzle. Partly sunny.14 mph100%29.47 "HgN/A
7:20 AM39 °FDrizzle. Partly sunny.17 mph93%29.47 "HgN/A
6:50 AM39 °FDrizzle. Overcast.16 mph93%29.47 "Hg4 mi
6:20 AM39 °FPassing clouds.18 mph87%29.47 "HgN/A
5:50 AM39 °FPassing clouds.17 mph87%29.50 "HgN/A
5:20 AM39 °FLight rain. Overcast.20 mph87%29.50 "HgN/A
4:20 AM41 °FLight rain. Overcast.16 mph70%29.56 "HgN/A
3:50 AM41 °FLight rain. Passing clouds.16 mph66%29.56 "HgN/A
3:20 AM41 °FLight rain. Passing clouds.15 mph66%29.59 "HgN/A
2:50 AM41 °FPassing clouds.17 mph66%29.62 "HgN/A
2:20 AM41 °FPassing clouds.15 mph66%29.62 "HgN/A
1:50 AM41 °FPassing clouds.15 mph66%29.65 "HgN/A
1:20 AM41 °FPassing clouds.16 mph66%29.68 "HgN/A
12:50 AM41 °FPassing clouds.17 mph66%29.71 "HgN/A
12:20 AM41 °FPassing clouds.16 mph61%29.74 "HgN/A
11:50 PM
Sat, Feb 28
39 °FPassing clouds.15 mph65%29.74 "HgN/A
11:20 PM39 °FPassing clouds.16 mph65%29.77 "HgN/A
10:50 PM39 °FClear.14 mph65%29.80 "Hg10 mi
10:20 PM39 °FClear.13 mph65%29.80 "Hg10 mi
9:50 PM37 °FClear.10 mph70%29.83 "Hg10 mi
9:20 PM37 °FClear.10 mph70%29.86 "Hg10 mi
8:50 PM39 °FClear.12 mph65%29.86 "Hg10 mi
8:20 PM37 °FClear.9 mph75%29.89 "Hg10 mi
7:50 PM37 °FClear.9 mph75%29.89 "Hg10 mi
7:20 PM37 °FClear.9 mph75%29.89 "Hg10 mi
6:50 PM41 °FClear.9 mph66%29.89 "Hg10 mi
6:20 PM39 °FClear.9 mph70%29.89 "Hg10 mi
Weather by CustomWeather, © 2015

See weather overviewHow to use our weather pages